Hearne, TX

7:25 AM CDT on August 21, 2017 (GMT -0500)
Hearne

Weather History for KLHB - June, 2013

Change the Weather History Date:

Thursday, June 13, 2013

  Actual Average (KCLL) Record (KCLL)
Temperature  
Mean Temperature 84 °F -  
Max Temperature 94 °F 89 °F 105 °F (1911)
Min Temperature 73 °F 70 °F 60 °F (1910)
Cooling Degree Days 18    
Growing Degree Days 34 (Base 50)    
Moisture  
Dew Point 71 °F    
Average Humidity 71    
Maximum Humidity 93    
Minimum Humidity 42    
Precipitation  
Precipitation 0.00 in - - ()
Sea Level Pressure  
Sea Level Pressure 30.01 in    
Wind  
Wind Speed 7 mph (SE)    
Max Wind Speed 24 mph    
Max Gust Speed 93 mph    
Visibility 10 miles    
Events      
Averages and records for this station are not official NWS values.
T = Trace of Precipitation, MM = Missing Value Source: NWS Daily Summary

Daily Weather History Graph

Daily Weather History Graph

Search for Another Location

Airport or City:

Trip Planner

Search our weather history database for the weather conditions in past years. The results will help you decide how hot, cold, wet, or windy it might be!

Date:

Astronomy

Jun. 13, 2013 Rise Set
Actual Time 6:22 AM CDT 8:30 PM CDT
Civil Twilight 5:54 AM CDT 8:58 PM CDT
Nautical Twilight 5:21 AM CDT 9:32 PM CDT
Astronomical Twilight 4:44 AM CDT 10:08 PM CDT
Moon 10:45 AM CDT (6/13) 11:55 PM CDT (6/13)
Length of Visible Light 15h 03m
Length of Day
14h 07m
Waxing Crescent, 22% of the Moon is Illuminated
Jun 13
Waxing Crescent
Jun 16
First Quarter
Jun 23
Full
Jun 29
Last Quarter
Jul 8
New

Hourly Weather History & Observations

Time (CDT) Temp. Heat Index Dew Point Humidity Pressure Visibility Wind Dir Wind Speed Gust Speed Precip Events Conditions
12:15 AM 77.4 °F - 72.5 °F 85% 30.02 in 10.0 mi SE 3.5 mph - N/A   Clear
12:35 AM 77.2 °F - 72.7 °F 86% 30.01 in 10.0 mi SE 24.2 mph 84.0 mph N/A   Clear
12:55 AM 76.6 °F - 72.5 °F 87% 30.01 in 10.0 mi SE 16.1 mph 80.6 mph N/A   Clear
1:15 AM 76.5 °F - 72.5 °F 87% 30.01 in 10.0 mi SE 5.8 mph 88.6 mph N/A   Clear
1:35 AM 76.1 °F - 72.1 °F 87% 30.01 in 10.0 mi SSE 19.6 mph 65.6 mph N/A   Clear
1:55 AM 76.1 °F - 72.0 °F 87% 30.01 in 10.0 mi Calm Calm - N/A   Clear
2:15 AM 75.6 °F - 72.0 °F 89% 30.01 in 10.0 mi Calm Calm - N/A   Clear
2:35 AM 75.2 °F - 71.8 °F 89% 30.01 in 10.0 mi Calm Calm - N/A   Clear
2:55 AM 74.7 °F - 71.6 °F 90% 30.01 in 10.0 mi Calm Calm - N/A   Clear
3:15 AM 74.3 °F - 71.2 °F 90% 30.02 in 10.0 mi ESE 21.9 mph 84.0 mph N/A   Clear
3:35 AM 74.3 °F - 71.1 °F 90% 30.02 in 10.0 mi ESE 17.3 mph 93.2 mph N/A   Clear
3:55 AM 73.8 °F - 70.9 °F 91% 30.02 in 10.0 mi ESE 3.5 mph 58.7 mph N/A   Clear
4:15 AM 73.6 °F - 70.9 °F 91% 30.02 in 10.0 mi Calm Calm - N/A   Clear
4:35 AM 73.4 °F - 70.7 °F 91% 30.02 in 10.0 mi SE 15.0 mph 51.8 mph N/A   Clear
4:55 AM 73.4 °F - 70.7 °F 91% 30.03 in 10.0 mi Calm Calm - N/A   Clear
5:15 AM 73.6 °F - 70.9 °F 91% 30.03 in 10.0 mi ESE 3.5 mph 65.6 mph N/A   Clear
5:35 AM 73.2 °F - 70.9 °F 92% 30.03 in 10.0 mi East 5.8 mph - N/A   Scattered Clouds
5:55 AM 73.6 °F - 71.4 °F 93% 30.04 in 10.0 mi SE 5.8 mph - N/A   Overcast
6:15 AM 74.3 °F - 72.0 °F 92% 30.05 in 7.0 mi South 6.9 mph - N/A   Overcast
6:35 AM 74.7 °F - 72.5 °F 93% 30.06 in 7.0 mi Calm Calm - N/A   Overcast
6:55 AM 75.0 °F - 72.5 °F 92% 30.06 in 7.0 mi Calm Calm - N/A   Overcast
7:15 AM 75.4 °F - 72.9 °F 92% 30.06 in 7.0 mi Calm Calm - N/A   Overcast
7:35 AM 75.9 °F - 73.2 °F 91% 30.07 in 5.0 mi Calm Calm - N/A   Overcast
7:55 AM 76.5 °F - 73.4 °F 90% 30.07 in 7.0 mi SSE 6.9 mph - N/A   Overcast
8:15 AM 77.0 °F - 73.6 °F 89% 30.08 in 7.0 mi SSE 5.8 mph - N/A   Overcast
8:35 AM 77.9 °F - 73.6 °F 86% 30.08 in 7.0 mi SSE 3.5 mph - N/A   Overcast
8:55 AM 78.4 °F - 73.4 °F 84% 30.09 in 10.0 mi SSW 6.9 mph - N/A   Overcast
9:15 AM 79.9 °F - 73.6 °F 81% 30.09 in 10.0 mi SSW 6.9 mph - N/A   Overcast
9:35 AM 81.3 °F 86.8 °F 73.8 °F 78% 30.09 in 10.0 mi SSE 9.2 mph - N/A   Mostly Cloudy
9:55 AM 82.4 °F 88.4 °F 73.6 °F 75% 30.09 in 10.0 mi SW 11.5 mph - N/A   Mostly Cloudy
10:15 AM 82.0 °F 87.7 °F 73.4 °F 75% 30.09 in 10.0 mi SSE 8.1 mph 11.5 mph N/A   Scattered Clouds
10:35 AM 84.4 °F 91.3 °F 73.6 °F 70% 30.08 in 10.0 mi SSE 8.1 mph - N/A   Scattered Clouds
10:55 AM 85.5 °F 92.6 °F 73.6 °F 67% 30.08 in 10.0 mi South 11.5 mph 18.4 mph N/A   Scattered Clouds
11:15 AM 86.2 °F 93.4 °F 73.0 °F 65% 30.08 in 10.0 mi SSW 5.8 mph 20.7 mph N/A   Scattered Clouds
11:35 AM 84.9 °F 90.7 °F 72.1 °F 65% 30.08 in 10.0 mi WSW 4.6 mph - N/A   Scattered Clouds
11:55 AM 86.7 °F 93.3 °F 72.5 °F 62% 30.07 in 10.0 mi South 4.6 mph - N/A   Scattered Clouds
12:15 PM 87.4 °F 94.0 °F 72.0 °F 60% 30.06 in 10.0 mi SSE 4.6 mph - N/A   Scattered Clouds
12:35 PM 88.0 °F 94.7 °F 72.0 °F 59% 30.06 in 10.0 mi SSE 4.6 mph - N/A   Scattered Clouds
12:55 PM 88.7 °F 94.8 °F 71.1 °F 56% 30.05 in 10.0 mi SSW 3.5 mph - N/A   Clear
1:15 PM 89.6 °F 96.2 °F 71.2 °F 55% 30.04 in 10.0 mi SSW 4.6 mph - N/A   Clear
1:35 PM 90.7 °F 97.4 °F 71.6 °F 53% 30.03 in 10.0 mi ESE 10.4 mph - N/A   Clear
1:55 PM 90.5 °F 97.0 °F 71.4 °F 53% 30.02 in 10.0 mi SE 3.5 mph - N/A   Scattered Clouds
2:15 PM 91.2 °F 98.0 °F 71.6 °F 52% 30.01 in 10.0 mi SSE 12.7 mph - N/A   Mostly Cloudy
2:35 PM 92.3 °F 99.7 °F 71.6 °F 51% 30.00 in 10.0 mi NE 4.6 mph - N/A   Scattered Clouds
2:55 PM 92.3 °F 98.6 °F 70.9 °F 49% 29.99 in 10.0 mi SE 9.2 mph - N/A   Scattered Clouds
3:15 PM 91.2 °F 97.0 °F 70.3 °F 50% 29.98 in 10.0 mi Calm Calm - N/A   Clear
3:35 PM 92.5 °F 99.6 °F 71.6 °F 50% 29.98 in 10.0 mi ESE 5.8 mph - N/A   Mostly Cloudy
3:55 PM 93.0 °F 99.5 °F 70.9 °F 48% 29.97 in 10.0 mi ENE 8.1 mph - N/A   Scattered Clouds
4:15 PM 93.9 °F 99.7 °F 69.4 °F 45% 29.96 in 10.0 mi Calm Calm - N/A   Scattered Clouds
4:35 PM 93.7 °F 98.8 °F 69.1 °F 44% 29.95 in 10.0 mi East 4.6 mph - N/A   Scattered Clouds
4:55 PM 94.5 °F 99.6 °F 69.1 °F 43% 29.94 in 10.0 mi ESE 4.6 mph - N/A   Clear
5:15 PM 94.1 °F 98.4 °F 68.0 °F 42% 29.93 in 10.0 mi ESE 5.8 mph - N/A   Clear
5:35 PM 94.1 °F 98.9 °F 68.7 °F 43% 29.93 in 10.0 mi ESE 5.8 mph - N/A   Clear
5:55 PM 94.3 °F 99.8 °F 69.1 °F 44% 29.92 in 10.0 mi ESE 3.5 mph - N/A   Clear
6:15 PM 93.4 °F 99.7 °F 70.2 °F 47% 29.91 in 10.0 mi Calm Calm - N/A   Clear
6:35 PM 93.2 °F 99.9 °F 70.9 °F 48% 29.91 in 10.0 mi ESE 4.6 mph - N/A   Clear
6:55 PM 92.5 °F 100.1 °F 71.8 °F 51% 29.91 in 10.0 mi ESE 4.6 mph - N/A   Clear
7:15 PM 92.3 °F 98.6 °F 70.9 °F 49% 29.91 in 10.0 mi East 3.5 mph - N/A   Clear
7:35 PM 90.7 °F 97.4 °F 71.2 °F 53% 29.92 in 10.0 mi Calm Calm - N/A   Clear
7:55 PM 89.2 °F 96.4 °F 72.0 °F 57% 29.92 in 10.0 mi ESE 3.5 mph - N/A   Clear
8:15 PM 87.6 °F 94.8 °F 72.7 °F 61% 29.94 in 10.0 mi South 11.5 mph - N/A   Scattered Clouds
8:35 PM 85.5 °F 89.8 °F 69.4 °F 59% 29.93 in 10.0 mi SW 8.1 mph - N/A   Scattered Clouds
8:55 PM 83.3 °F 87.4 °F 69.8 °F 64% 29.93 in 10.0 mi SW 3.5 mph - N/A   Scattered Clouds
9:15 PM 82.6 °F 86.1 °F 69.4 °F 64% 29.93 in 10.0 mi SW 3.5 mph - N/A   Clear
9:35 PM 81.7 °F 85.1 °F 69.4 °F 66% 29.94 in 10.0 mi Calm Calm - N/A   Clear
9:55 PM 80.4 °F 83.8 °F 70.3 °F 71% 29.95 in 10.0 mi Calm Calm - N/A   Clear
10:15 PM 79.0 °F - 70.3 °F 75% 29.95 in 10.0 mi Calm Calm - N/A   Clear
10:35 PM 77.9 °F - 70.7 °F 78% 29.96 in 10.0 mi Calm Calm - N/A   Clear
10:55 PM 77.7 °F - 70.7 °F 79% 29.96 in 10.0 mi Calm Calm - N/A   Clear
11:15 PM 76.5 °F - 70.5 °F 82% 29.97 in 10.0 mi South 3.5 mph - N/A   Clear
11:35 PM 77.9 °F - 69.6 °F 76% 29.97 in 10.0 mi Calm Calm - N/A   Clear
11:55 PM 77.0 °F - 70.2 °F 79% 29.97 in 10.0 mi Calm Calm - N/A   Clear